TimeEST,TemperatureF,Dew PointF,Humidity,Sea Level PressureIn,VisibilityMPH,Wind Direction,Wind SpeedMPH,Gust SpeedMPH,PrecipitationIn,Events,Conditions,WindDirDegrees,DateUTC
12:53 AM,62.1,61.0,96,29.80,4.0,SSW,8.1,-,N/A,,Overcast,200,2012-12-11 05:53:00
1:42 AM,62.6,62.6,100,29.79,1.8,SW,10.4,-,N/A,,Overcast,220,2012-12-11 06:42:00
1:51 AM,62.6,62.6,100,29.79,0.5,SW,9.2,-,N/A,Fog,Fog,220,2012-12-11 06:51:00
1:53 AM,63.0,63.0,100,29.80,0.5,SW,10.4,-,N/A,Fog,Fog,220,2012-12-11 06:53:00
2:41 AM,64.4,62.6,94,29.80,0.2,SW,9.2,-,N/A,Fog,Fog,220,2012-12-11 07:41:00
2:53 AM,63.0,62.1,97,29.81,0.2,SW,9.2,-,N/A,Fog,Fog,220,2012-12-11 07:53:00
3:18 AM,62.6,62.6,100,29.80,0.5,SW,10.4,-,N/A,Fog,Fog,220,2012-12-11 08:18:00
3:38 AM,62.6,62.6,100,29.81,2.5,SW,11.5,-,N/A,,Overcast,230,2012-12-11 08:38:00
3:45 AM,62.6,62.6,100,29.81,5.0,SSW,10.4,-,N/A,,Overcast,210,2012-12-11 08:45:00
3:53 AM,63.0,63.0,100,29.81,2.5,SW,9.2,-,N/A,,Overcast,220,2012-12-11 08:53:00
4:02 AM,62.6,62.6,100,29.81,1.0,SW,9.2,-,N/A,,Overcast,230,2012-12-11 09:02:00
4:09 AM,62.6,62.6,100,29.81,0.8,SW,10.4,-,N/A,,Mist,220,2012-12-11 09:09:00
4:53 AM,62.1,61.0,96,29.81,0.8,SW,9.2,-,N/A,,Mist,220,2012-12-11 09:53:00
5:04 AM,60.8,60.8,100,29.82,1.0,SW,8.1,-,N/A,,Mist,230,2012-12-11 10:04:00
5:16 AM,60.8,60.8,100,29.82,3.0,SW,6.9,-,N/A,,Mostly Cloudy,220,2012-12-11 10:16:00
5:29 AM,60.8,60.8,100,29.82,6.0,SW,9.2,-,N/A,,Scattered Clouds,220,2012-12-11 10:29:00
5:53 AM,61.0,60.1,97,29.83,6.0,SW,6.9,-,N/A,,Clear,230,2012-12-11 10:53:00
6:31 AM,60.8,60.8,100,29.85,2.0,Calm,Calm,-,N/A,,Clear,0,2012-12-11 11:31:00
6:36 AM,57.2,57.2,100,29.85,0.8,Calm,Calm,-,N/A,,Clear,0,2012-12-11 11:36:00
6:53 AM,57.9,57.0,97,29.87,0.8,SW,3.5,-,N/A,,Clear,220,2012-12-11 11:53:00
6:58 AM,59.0,57.2,94,29.86,2.0,SW,3.5,-,N/A,,Clear,220,2012-12-11 11:58:00
7:06 AM,60.8,59.0,94,29.86,4.0,WSW,3.5,-,N/A,,Clear,250,2012-12-11 12:06:00
7:53 AM,63.0,62.1,97,29.89,10.0,West,5.8,-,N/A,,Clear,270,2012-12-11 12:53:00
8:53 AM,64.9,62.1,90,29.92,10.0,West,4.6,-,N/A,,Clear,260,2012-12-11 13:53:00
9:53 AM,68.0,61.0,78,29.94,10.0,WNW,8.1,-,N/A,,Partly Cloudy,300,2012-12-11 14:53:00
10:21 AM,69.8,60.8,73,29.95,10.0,WNW,8.1,-,N/A,,Mostly Cloudy,290,2012-12-11 15:21:00
10:53 AM,69.1,60.1,73,29.95,10.0,WNW,6.9,-,N/A,,Mostly Cloudy,290,2012-12-11 15:53:00
11:05 AM,69.8,60.8,73,29.95,10.0,Variable,5.8,-,N/A,,Mostly Cloudy,0,2012-12-11 16:05:00
12:53 PM,70.0,59.0,68,29.94,10.0,Variable,4.6,-,N/A,,Overcast,0,2012-12-11 17:53:00
1:53 PM,71.1,59.0,66,29.94,10.0,West,4.6,-,N/A,,Overcast,260,2012-12-11 18:53:00
2:53 PM,66.9,59.0,76,29.94,10.0,South,5.8,-,N/A,,Mostly Cloudy,180,2012-12-11 19:53:00
3:53 PM,66.0,59.0,78,29.96,10.0,SW,4.6,-,N/A,,Overcast,230,2012-12-11 20:53:00
4:04 PM,64.4,59.0,83,29.96,10.0,WSW,3.5,-,N/A,,Overcast,240,2012-12-11 21:04:00
4:18 PM,66.2,59.0,78,29.97,10.0,South,3.5,-,0.00,Rain,Light Rain,180,2012-12-11 21:18:00
4:53 PM,64.0,60.1,87,29.98,8.0,SW,3.5,-,0.00,Rain,Light Rain,220,2012-12-11 21:53:00
5:53 PM,62.1,60.1,93,30.00,8.0,Calm,Calm,-,0.00,,Clear,0,2012-12-11 22:53:00
6:53 PM,62.1,60.1,93,30.03,8.0,Calm,Calm,-,0.00,Rain,Light Rain,0,2012-12-11 23:53:00
7:53 PM,62.1,61.0,96,30.02,8.0,Calm,Calm,-,0.01,Rain,Light Rain,0,2012-12-12 00:53:00
8:53 PM,62.1,60.1,93,30.04,8.0,Calm,Calm,-,0.00,,Overcast,0,2012-12-12 01:53:00
9:16 PM,62.6,60.8,94,30.05,9.0,Calm,Calm,-,N/A,,Overcast,0,2012-12-12 02:16:00
9:27 PM,62.6,60.8,94,30.05,8.0,Calm,Calm,-,0.00,Rain,Light Rain,0,2012-12-12 02:27:00
9:53 PM,62.1,60.1,93,30.06,8.0,Calm,Calm,-,0.00,,Overcast,0,2012-12-12 02:53:00
10:35 PM,62.6,60.8,94,30.06,8.0,Calm,Calm,-,N/A,,Overcast,0,2012-12-12 03:35:00
10:53 PM,62.1,59.0,90,30.06,9.0,Calm,Calm,-,N/A,,Overcast,0,2012-12-12 03:53:00
11:53 PM,62.1,60.1,93,30.08,8.0,Calm,Calm,-,0.00,Rain,Light Rain,0,2012-12-12 04:53:00